Location: Apeadero de Los Molinos-Guadarrama
(40.7091°N, 4.0689°W)
Time: 12:31:11
(UTC+00:00)

X-37B - Pass Details

Date: 14 May 2021
Orbit: 386 x 389 km, 45.0° (Epoch: 10 June)

Event Time Altitude Azimuth Distance (km) Brightness Sun altitude
Rises 20:13:57 0° 291° (WNW) 2,274 6.3 -8.7°
Reaches altitude 10° 20:16:03 10° 287° (WNW) 1,416 4.8 -9.1°
Maximum altitude 20:19:11 60° 207° (SSW) 449 0.8 -9.5°
Enters shadow 20:21:39 15° 129° (SE) 1,141 2.3 -9.9°
